CZ-6A DEB, 54505

Orbit data source: Space-Track

CZ-6A DEB, 54505 is space debris in SSO originally from a launch on Fri, 11 Nov 2022 UTC launched from the Taiyaun Space Center, China (TSC). Debris objects in space refer to the collection of defunct objects orbiting the Earth. Examples of debris include non-operational satellites, rocket bodies, and fragments generated from explosions, collisions, or faulty payload assembly.

Loading next visibility...
Identifier
54505, 2022-151JH
Orbit
SSO
Country
Flag of CNCN / PRC
Related business
Manufacturer
SAST
Mission
Spacecraft
Bus & Motor
Unknown
Mass
Unknown
Launch date (UTC)
2022-11-11 (4 years ago)
Launch vehicle
Unknown
Launch site
Taiyaun Space Center, China (TSC)
Object type
Payload
Rocket body
Debris
Shape & HBR
Unknown shape, 0.1 m
Radar Cross Section
Medium (>0.1 m² and <1 m²)

Expand to show TLE details & history
Last TLE update: 2 days ago

TLE from 2 days ago
0 CZ-6A DEB
1 54505U 22151JH  26235.15292500  .00002326  00000-0  73024-3 0  9994
2 54505  98.9196 311.1375 0068002 245.9472 113.4589 14.40236697197429
Epoch: 2026-08-23T03:40Z
TLE epoch observation values (Epoch: 2026-08-23T03:40:12.720Z)
Latitude
Longitude
-75.36857°
Altitude
780.25 km
Speed
7.454 km/s
True Right ascension
20h 44m 32s
True Declination
0° 00' 00"
Sunlit
Object was in full shadow at epoch
Visualization orbit readout
Latitude
Unknown
Longitude
Unknown
Altitude
Unknown
Speed
Unknown
Apparent Right ascension
Unknown
Apparent Declination
Unknown
Sunlit
N/A
Visualization observer readout
Local Sidereal Time
07:25:11
Azimuth
Unknown
Elevation
Unknown
Doppler factor
Unknown
Orbital elements
Apogee altitude
803.364 km
Perigee altitude
706.352 km
Semi-major axis
7,132.995 km
Eccentricity
0.0068
Inclination
98.9196°
RAAN
311.1375°
Arg. of periapsis
245.9472°
True anomaly
114.17131°
Mean anomaly
113.4589°
Eccentric anomaly
113.81535°
Mean motion
3.60276 °/min
Orbital period
99.92 mins
BSTAR
0.00073024
Loading maneuver chart data...
Computing Atmospheric mass density...
Loading historical data...
Loading historical data...
Loading historical data...
Loading historical data...
Loading historical data...
Loading historical data...
Loading historical data...

Documentation

Showing up to 5 results
|